Tracking 26308 objects as of 1-Dec-2022
HD Live streaming from Space Station
objects crossing your sky now

STARLINK-5241

Track STARLINK-5241 now!
10-day predictions
STARLINK-5241 is classified as:


NORAD ID: 54204
Int'l Code: 2022-141AZ
Perigee: 354.9 km
Apogee: 359.7 km
Inclination: 53.2 °
Period: 91.5 minutes
Semi major axis: 6728 km
RCS: Unknown
Launch date: October 28, 2022
Source: United States (US)
Launch site: AIR FORCE WESTERN TEST RANGE (AFWTR)
aabbcc
Your satellite tracking list
Your tracking list is empty




NASA's NSSDC Master Catalog

Two Line Element Set (TLE):
1 54204U 22141AZ  22334.91667824  .00184430  00000-0  12978-2 0  9991
2 54204  53.2166 336.2290 0003548   6.5362  92.5641 15.73051786  5596
Source of the keplerian elements: AFSPC